Location: Bretagne
(43.8474°N, 0.4650°W)
Time: 09:46:29
(UTC+00:00)

SMAP - Pass Details

Date: 15 January 2026
Orbit: 682 x 683 km, 98.1° (Epoch: 18 February)

Event Time Altitude Azimuth Distance (km) Brightness Sun altitude
Rises 17:44:20 0° 177° (S) 3,031 6.6 -9.7°
Reaches altitude 10° 17:46:36 10° 181° (S) 2,121 5.9 -10.1°
Maximum altitude 17:51:09 55° 260° (W) 823 3.9 -10.9°
Drops below altitude 10° 17:55:45 10° 338° (NNW) 2,137 5.7 -11.7°
Sets 17:58:03 0° 343° (NNW) 3,057 6.4 -12.1°
